Wind_Speed
17 21 23 25 26 27 28 27 27 28 28 29 28 27 27 27 27 27 27 28 27 27 26 25 25 25 24 22 21 20 20 19 18 17 15 14 13 13 13 13 12 11 10 8 7 7 5 4 4 4 4 4 5 4 4 3 3 4 5 6 6 5 4 3 4 5 5 4 4 4 4 4 8 12 12 10 9 7 4 3 3 4 3 0 3
18 22 24 25 27 28 29 29 29 29 29 29 28 27 26 27 27 27 28 28 27 27 26 24 23 23 21 19 19 19 19 19 18 16 15 15 14 14 14 13 13 11 10 9 8 7 6 5 5 4 4 5 5 5 4 3 3 4 6 6 7 6 5 4 5 6 6 5 4 4 4 4 7 10 11 9 8 6 4 3 4 5 5 4 3
20 21 23 25 27 28 29 30 31 30 29 28 28 28 27 26 26 27 28 28 27 27 26 23 22 22 20 18 18 19 19 19 18 18 17 16 15 14 14 13 12 11 10 9 8 8 7 5 5 4 4 5 6 5 5 4 4 5 6 6 7 8 7 6 7 8 8 8 6 4 3 5 7 9 9 8 8 8 7 6 6 6 7 8 8
20 21 22 23 26 28 29 30 31 31 30 29 29 29 28 27 26 26 27 28 27 26 25 23 22 23 22 20 20 20 20 20 21 21 20 18 17 15 14 13 12 12 11 9 9 8 8 6 5 5 4 4 5 6 6 5 5 6 6 6 7 9 10 9 9 10 10 9 8 6 5 6 8 9 8 8 9 9 8 7 6 7 8 9 9
19 20 21 21 23 26 28 29 30 30 30 30 30 29 28 27 26 26 26 26 26 26 25 24 24 24 24 24 24 24 24 24 24 23 21 19 17 15 13 12 12 12 11 10 9 9 8 7 6 5 5 5 6 7 7 6 6 7 7 7 8 10 11 11 11 11 11 10 9 8 7 6 8 8 7 6 7 8 8 8 6 6 7 8 8
20 19 19 19 20 22 26 28 29 30 29 28 29 28 27 26 26 26 26 26 26 26 26 26 25 24 25 26 26 27 27 26 24 22 20 18 15 14 14 13 12 12 11 11 10 9 9 8 7 6 5 5 7 7 7 6 7 7 8 8 8 9 10 11 11 11 11 11 10 9 8 7 8 8 7 6 6 6 6 6 5 5 7 7 7
23 22 21 20 20 21 22 24 26 28 28 27 28 28 27 26 26 26 26 26 26 26 27 27 26 25 25 25 25 25 25 23 20 20 19 17 16 16 15 14 13 12 12 12 11 10 9 9 8 7 6 5 7 8 8 7 7 8 8 8 8 9 9 10 10 10 10 11 11 10 9 8 8 8 8 7 6 5 5 5 4 5 7 6 5
26 25 25 25 23 21 20 19 20 23 26 28 28 27 27 27 27 26 26 26 26 27 28 27 26 25 24 24 25 24 22 20 19 19 20 19 19 18 16 15 14 13 13 13 12 12 11 10 9 8 6 5 6 8 9 8 8 8 8 8 8 8 8 9 8 8 9 10 10 11 11 10 8 8 8 8 7 6 7 6 5 6 6 5 4
28 26 25 25 25 23 20 18 17 20 24 27 27 26 26 27 27 27 28 27 27 27 28 27 26 24 24 24 25 24 22 21 21 21 21 21 20 20 18 17 17 16 15 14 13 13 12 12 10 9 7 6 7 9 9 9 8 9 9 9 9 8 7 8 7 7 7 8 9 10 11 11 10 10 9 8 8 8 8 7 6 5 5 5 3
29 28 26 25 24 22 21 20 19 20 22 25 27 27 27 27 28 28 29 29 28 28 28 28 27 26 25 24 25 24 24 23 24 24 23 23 22 21 20 19 18 17 16 15 14 13 13 13 12 10 9 8 8 9 10 10 9 10 10 9 9 8 8 7 7 6 6 7 8 9 10 10 10 10 10 9 8 8 8 7 6 5 5 4 3
29 29 28 26 24 22 22 22 22 22 22 24 28 29 28 28 28 28 29 29 29 29 29 28 28 27 25 24 24 24 25 25 26 25 25 24 23 22 21 20 18 17 16 16 15 14 13 13 13 13 11 10 9 9 10 11 11 11 11 10 9 8 8 7 7 6 5 6 7 8 9 9 10 10 10 9 8 8 8 8 7 5 4 4 3
29 29 29 28 26 26 25 25 24 24 25 26 28 30 30 30 29 28 28 30 30 29 29 29 29 28 25 24 23 24 26 26 26 25 25 24 22 21 21 20 19 18 17 17 15 14 13 13 15 14 13 11 10 10 11 12 12 11 11 11 10 9 8 7 7 6 5 5 6 7 8 8 9 9 9 9 9 9 9 8 7 6 5 5 4
32 30 30 29 27 28 29 27 27 28 28 28 29 30 31 31 30 29 29 30 31 30 30 30 30 28 26 24 24 25 26 27 26 25 23 22 21 20 20 20 19 18 17 16 15 14 13 13 14 15 14 12 11 11 11 12 13 12 12 12 11 10 9 8 7 7 6 6 6 6 7 7 8 8 9 9 9 10 10 10 9 8 7 7 6
35 32 31 30 27 28 29 28 28 30 30 29 29 30 32 32 32 31 30 29 30 31 31 30 30 29 27 25 24 25 26 26 26 25 22 20 19 19 18 18 18 17 16 15 15 15 13 12 13 15 15 15 14 13 13 13 14 13 13 12 12 12 10 9 8 7 6 6 6 5 5 6 7 8 8 8 9 10 11 11 10 9 10 10 9
37 34 33 31 28 28 29 29 29 30 30 30 30 31 32 33 33 31 31 30 31 32 32 31 30 29 28 27 26 26 25 25 25 24 23 21 19 18 18 17 17 16 16 15 15 16 15 14 14 15 17 17 16 15 14 14 14 14 13 13 12 12 11 10 9 8 7 7 6 5 5 5 5 7 8 8 8 8 9 10 9 9 9 10 9
37 37 36 34 30 29 29 29 29 30 31 31 31 32 32 33 33 32 31 31 31 32 32 31 30 30 29 29 28 27 26 26 26 25 24 22 20 20 19 18 17 17 16 16 16 16 16 16 16 16 17 18 18 18 16 15 15 15 14 13 13 12 11 11 10 9 9 8 7 6 6 5 4 5 7 8 7 6 6 7 7 7 7 7 7
36 37 37 36 33 31 31 30 29 30 31 31 31 30 30 31 31 31 31 31 31 32 32 32 31 31 30 30 29 28 27 27 26 25 24 23 22 21 21 20 19 18 18 17 17 17 18 18 17 17 18 20 20 19 18 17 16 15 15 14 13 13 12 12 11 11 10 9 8 8 7 6 5 5 5 6 6 5 3 3 4 4 5 6 5
37 35 37 38 36 33 32 30 29 28 29 30 30 29 29 29 29 29 30 31 31 32 32 32 32 31 31 31 30 29 28 27 26 25 25 24 24 22 22 21 20 19 19 19 19 19 19 19 19 19 19 21 21 20 19 18 17 16 15 15 15 14 13 13 12 12 11 11 10 9 8 7 6 5 5 5 5 5 3 1 1 1 2 3 3
42 39 39 40 39 37 34 31 28 27 28 29 31 31 29 28 28 29 29 29 30 31 31 32 32 32 32 31 31 30 28 27 27 26 26 26 25 24 23 21 20 19 19 20 20 20 19 19 20 20 20 21 21 20 19 17 16 15 15 15 15 15 14 14 13 13 13 12 11 10 9 8 8 7 7 6 6 5 5 4 3 2 1 1 1
43 42 41 40 40 39 37 32 28 26 26 28 32 33 31 29 29 29 30 30 31 31 31 32 32 32 32 32 31 31 29 28 28 27 27 27 26 25 24 22 21 20 20 20 20 20 19 17 18 19 19 19 19 19 18 16 15 14 14 14 15 15 15 15 15 15 15 14 13 12 11 10 10 10 9 8 8 7 7 6 6 5 4 4 3
40 39 39 39 40 41 39 34 29 27 26 28 31 33 32 31 30 30 30 31 32 32 32 32 32 32 32 32 31 31 30 29 29 29 28 27 26 26 25 24 23 22 21 21 20 20 18 15 15 17 17 17 17 17 17 16 15 15 15 15 16 16 16 16 16 17 17 15 14 14 13 12 12 12 11 10 10 10 9 9 9 8 7 7 7
37 34 34 35 39 42 41 35 31 29 28 27 30 32 32 32 31 30 31 32 32 32 33 32 32 32 32 32 31 31 30 29 29 29 28 28 27 26 26 25 25 23 22 21 20 19 18 15 14 15 16 16 16 16 17 17 16 16 16 16 16 15 15 15 16 16 16 16 16 15 15 15 15 14 13 13 12 12 12 12 12 11 11 10 11
32 31 31 31 36 42 43 37 32 31 28 27 28 30 30 30 30 30 31 31 31 32 32 32 32 33 32 32 32 31 31 30 30 30 29 28 27 27 26 26 25 24 23 22 21 21 20 17 16 15 15 15 15 16 16 16 16 15 15 14 13 13 12 13 14 14 14 15 16 16 16 17 18 17 16 16 15 15 15 15 15 15 14 14 14
30 30 30 29 33 40 43 40 34 32 29 27 27 27 27 28 29 30 31 31 30 31 32 33 33 33 32 33 33 32 32 31 30 29 29 28 27 27 27 26 25 24 24 23 22 22 22 20 19 17 16 15 15 16 16 16 15 14 13 12 11 10 10 10 10 11 12 13 14 15 15 17 19 20 19 19 18 18 18 18 17 17 18 17 17
32 32 31 31 34 38 42 41 35 32 30 28 26 25 25 26 28 29 30 30 30 30 32 33 33 33 33 33 33 33 33 32 31 29 28 27 27 27 26 26 25 24 24 23 24 24 24 23 21 19 18 17 17 17 17 16 15 14 12 11 10 10 9 9 9 10 10 11 11 11 12 15 18 20 20 20 20 20 21 21 20 20 20 20 20
33 33 31 32 33 34 40 43 37 32 31 28 25 24 25 26 26 26 27 27 28 29 30 32 32 33 33 34 34 34 33 32 31 30 28 27 27 27 26 25 25 24 23 23 24 25 25 25 23 21 19 18 18 18 18 17 16 14 13 12 11 10 10 10 10 10 10 10 10 10 11 13 16 17 17 17 19 20 21 22 22 22 23 23 24
34 33 30 31 32 31 37 43 38 33 31 29 26 26 26 26 25 24 24 24 25 26 27 29 30 31 32 33 33 33 33 32 31 30 28 28 28 27 27 26 25 24 24 24 24 24 25 25 24 23 22 20 20 20 19 18 17 16 14 13 12 11 10 10 10 10 11 11 11 11 12 13 14 14 14 14 16 17 18 20 21 22 24 26 26
35 34 31 31 30 28 34 42 39 34 32 30 28 29 28 27 25 24 23 23 23 23 23 25 26 28 29 30 30 31 32 32 31 30 29 29 28 28 27 26 25 25 24 24 23 23 23 24 25 25 23 22 23 23 22 20 19 17 15 14 12 12 11 11 11 11 12 12 12 12 13 13 14 14 14 14 16 17 18 18 19 20 22 24 26
35 35 32 30 26 26 33 40 39 35 32 31 30 31 30 28 26 25 25 24 24 23 22 22 23 25 26 27 28 28 30 30 30 31 30 29 29 28 28 27 26 26 25 24 23 23 23 24 24 25 25 25 25 24 23 22 20 19 17 15 15 14 14 13 13 14 14 14 14 14 15 15 16 16 16 17 17 18 20 20 19 20 22 23 24
35 34 32 28 26 27 31 36 38 35 33 31 31 32 32 29 27 27 27 26 26 26 25 24 23 22 21 22 24 26 28 29 30 30 30 30 29 29 28 28 27 26 25 24 24 24 24 24 24 25 26 26 26 25 24 23 21 20 18 18 17 16 16 16 16 17 17 17 16 17 17 18 19 19 19 19 20 20 22 22 21 21 23 24 26
35 34 31 27 28 30 32 33 35 35 33 31 30 32 32 30 28 28 28 28 28 29 29 27 25 23 21 20 21 23 25 27 28 29 29 30 30 30 29 29 28 27 26 25 25 25 25 24 25 25 26 27 27 26 25 24 22 21 20 19 18 17 18 18 18 18 17 17 18 18 18 19 20 21 21 21 22 22 23 24 23 24 25 26 28
35 34 30 28 30 33 32 31 33 34 33 30 28 30 31 30 29 29 28 28 29 30 30 30 28 26 25 24 22 22 22 23 25 26 27 28 29 29 29 29 28 28 27 27 27 26 25 25 25 26 27 27 27 26 25 24 22 21 20 19 19 18 18 18 17 17 16 16 17 17 18 18 18 19 20 20 20 21 21 23 23 24 26 27 28
33 31 28 30 32 33 31 31 32 33 32 29 26 27 27 27 28 28 28 29 29 30 30 30 29 28 28 28 27 25 24 23 23 23 24 25 27 27 28 27 27 27 27 28 28 27 26 25 26 26 26 27 26 25 25 23 22 21 20 20 19 19 19 18 17 17 16 15 15 16 17 17 17 18 18 19 19 19 20 21 22 23 25 25 26
31 29 30 32 33 32 31 31 30 30 29 26 24 23 22 22 23 25 27 28 27 28 28 29 29 30 30 30 30 29 27 25 24 23 23 23 24 25 25 25 26 26 27 27 27 27 26 26 25 25 25 26 26 25 24 23 22 21 20 20 21 20 21 20 19 18 17 16 16 17 19 19 19 20 21 21 22 22 23 24 25 25 25 25 26
31 30 32 33 31 31 30 29 29 29 27 25 22 21 19 18 19 21 24 25 25 26 26 26 28 29 30 31 30 30 29 28 27 26 25 24 23 23 23 23 24 25 25 25 26 26 26 25 24 24 24 25 24 24 23 23 21 20 20 21 22 22 23 22 21 19 18 18 19 20 22 22 22 23 24 24 24 25 26 27 28 28 27 27 27
32 31 32 31 29 29 28 27 27 27 26 23 20 19 19 19 20 21 23 24 25 26 25 24 25 27 28 29 29 30 30 30 30 29 28 27 25 24 23 23 23 23 24 24 25 25 25 24 24 24 25 25 24 23 23 22 21 21 21 23 24 24 24 24 22 20 20 20 21 23 24 24 25 25 25 25 26 27 29 29 29 29 29 29 29
33 32 32 31 30 30 29 27 26 26 24 22 20 19 20 21 23 24 23 23 25 25 24 24 24 24 25 26 27 29 30 30 30 30 30 30 29 27 26 25 24 24 23 23 24 24 24 24 25 25 25 25 25 24 24 23 22 23 24 25 26 25 26 25 24 22 23 23 24 25 25 26 25 25 25 25 27 28 30 30 30 31 31 30 29
35 34 34 33 33 33 32 30 27 25 24 23 23 22 23 24 25 26 25 25 25 25 24 24 23 23 23 23 25 27 28 29 31 31 32 32 31 31 30 29 28 27 25 25 24 24 24 25 25 25 25 26 26 25 25 25 24 25 26 27 27 27 27 26 25 25 25 26 25 25 26 26 26 25 25 26 27 28 30 30 31 32 32 31 30
37 37 35 33 33 34 34 31 27 25 25 25 25 24 24 25 26 26 26 27 27 25 24 23 22 22 21 21 22 24 25 27 29 30 31 32 33 33 33 32 32 31 29 28 27 27 26 25 25 25 26 28 28 27 27 27 27 27 27 27 28 28 28 28 27 27 27 27 26 26 26 26 26 26 26 26 27 29 30 31 32 33 34 33 32
37 38 37 34 33 34 34 31 27 27 28 28 27 25 25 26 26 26 26 26 26 26 25 24 23 22 21 21 21 21 22 23 24 26 28 30 31 32 33 34 35 34 34 33 32 30 29 28 27 27 27 29 29 28 28 29 29 29 29 29 30 30 30 30 30 30 29 28 27 27 27 27 28 28 28 28 29 31 32 33 34 36 36 35 34
33 34 33 32 31 32 32 31 30 31 31 29 27 25 25 25 25 24 25 26 27 27 26 27 26 24 23 21 20 20 21 21 21 21 23 26 28 29 31 32 34 35 36 37 36 35 34 32 31 30 30 30 30 30 30 30 31 31 31 32 33 32 32 32 32 31 31 30 29 28 28 29 29 29 29 30 31 33 34 35 36 37 38 37 35
29 29 29 29 30 31 31 31 32 31 29 27 25 23 23 23 22 22 24 28 29 28 27 26 26 26 24 22 20 20 20 21 21 21 22 24 26 28 29 30 32 33 35 36 37 38 38 37 36 35 34 33 33 33 33 33 33 34 34 35 35 34 34 34 34 33 32 32 31 30 31 31 31 31 31 32 33 34 35 36 37 38 39 39 37
30 30 30 29 30 32 32 32 31 30 27 25 23 22 21 20 19 20 21 23 24 24 22 21 20 21 21 20 19 19 19 19 19 19 21 23 25 27 29 30 31 32 33 34 34 36 38 39 39 39 38 37 37 36 36 36 36 36 37 37 36 35 35 36 35 34 34 33 33 33 33 33 33 33 33 34 35 36 36 37 38 38 40 41 39
33 33 32 31 31 32 32 31 30 29 27 25 23 21 20 19 19 18 18 18 19 19 19 18 17 17 18 19 19 19 19 18 18 17 17 18 21 25 29 30 32 32 33 33 33 34 35 37 38 40 41 41 41 40 40 39 39 39 39 38 37 37 37 37 36 35 35 35 35 35 35 35 35 35 35 36 37 37 37 37 38 38 40 41 39
35 34 33 32 31 30 30 29 28 27 26 25 23 22 21 21 21 20 20 20 19 19 19 19 20 19 19 20 20 20 20 19 18 18 17 17 18 20 24 28 31 33 34 34 33 33 34 34 36 37 39 41 42 43 43 42 42 42 41 40 39 38 38 38 37 37 37 37 36 36 36 36 36 37 37 38 38 37 37 36 37 37 37 38 37
35 34 34 34 32 31 30 29 28 27 26 25 24 24 23 23 22 22 22 22 22 22 21 22 22 22 22 22 22 22 21 21 20 20 20 19 19 19 19 21 25 30 34 35 35 34 34 35 35 36 37 38 40 41 42 42 41 41 40 39 39 39 39 39 38 38 38 38 37 37 37 37 38 38 39 38 37 36 36 36 36 35 33 34 35
33 33 34 34 33 32 31 30 29 27 26 26 25 25 25 25 25 25 25 25 26 25 25 24 24 24 24 24 24 24 23 23 23 23 23 22 21 20 20 19 20 23 29 33 36 36 36 35 36 36 36 37 38 39 39 39 39 39 39 39 39 39 39 39 38 38 38 38 38 37 37 38 39 38 38 38 37 36 35 34 33 32 31 32 34
30 30 31 31 31 29 28 28 27 26 26 26 27 27 28 29 29 29 30 30 30 29 28 27 27 26 26 25 25 25 25 25 25 25 26 26 24 23 23 22 21 21 24 28 33 36 37 36 36 37 37 37 37 37 37 36 37 37 37 37 38 38 38 38 37 37 38 37 37 37 38 38 38 38 38 38 36 33 31 30 30 30 32 33 35
26 26 27 27 27 26 25 25 25 25 25 26 28 29 30 31 32 33 34 34 34 33 32 30 29 29 28 28 28 28 28 28 28 28 28 28 28 27 26 25 24 24 23 24 27 31 34 36 37 37 37 36 36 36 36 35 35 36 36 36 37 37 37 37 37 36 37 37 37 37 37 37 37 37 37 35 32 29 28 29 30 31 32 33 34
21 22 22 22 22 22 22 23 24 25 25 25 26 27 28 29 30 32 33 35 35 35 34 33 32 32 32 31 31 31 30 30 30 30 31 31 30 29 29 28 27 26 26 25 25 26 29 31 34 35 35 35 35 34 34 34 35 35 35 36 36 37 36 36 36 36 36 36 36 36 36 36 36 34 32 29 28 28 29 30 31 32 33 34 35
18 18 18 18 18 19 19 20 21 22 23 24 25 26 27 28 30 31 32 34 35 36 35 34 34 33 34 34 34 34 33 33 33 33 33 32 32 31 30 30 29 28 28 27 26 26 27 28 29 30 31 32 32 33 33 34 35 35 36 36 36 37 37 36 35 35 34 34 34 34 34 34 32 30 28 28 28 29 30 31 31 32 33 34 36
Wind_Direction
208 205 200 197 197 196 195 196 196 197 197 198 199 200 200 201 204 203 201 202 203 204 206 204 200 201 204 202 198 197 198 199 196 198 203 204 204 203 206 210 209 207 208 206 200 200 194 176 170 166 160 148 143 138 113 91 78 73 68 69 69 54 40 30 16 17 27 29 18 19 45 102 130 141 147 147 137 121 119 136 118 90 72 118 211
204 205 203 199 198 199 198 197 198 198 197 198 198 199 200 201 203 203 203 204 202 203 206 207 202 202 206 205 201 201 200 199 198 198 203 208 208 205 206 210 211 206 205 208 202 200 200 188 179 174 167 160 156 147 124 103 85 77 70 68 74 71 60 49 40 35 38 42 29 21 41 86 123 138 142 142 139 132 130 124 99 85 77 82 118
208 207 206 203 199 200 201 200 200 199 198 199 198 198 200 202 202 203 204 204 202 202 205 207 203 202 205 205 205 205 204 201 199 199 202 206 209 208 207 210 212 207 203 206 203 201 206 199 189 184 175 170 165 149 133 126 110 92 83 75 76 80 76 63 50 44 46 55 60 52 59 85 109 126 133 141 148 145 134 119 107 103 97 93 98
216 214 210 208 203 202 204 203 202 201 199 200 199 199 200 201 202 202 203 204 203 202 203 205 204 204 203 202 204 206 206 203 200 199 201 204 207 208 209 210 212 207 200 202 203 202 208 208 201 196 185 176 171 158 145 137 123 106 95 87 82 80 76 67 55 46 45 53 67 73 78 91 104 117 134 151 155 146 133 124 120 112 104 98 95
222 219 213 211 209 207 207 206 205 203 203 202 202 201 201 201 202 202 203 203 203 201 202 204 204 204 202 202 202 202 203 203 200 198 201 205 207 207 207 212 213 207 199 197 201 204 207 209 205 202 193 180 175 164 151 140 130 118 106 96 88 79 71 64 57 52 49 50 60 74 81 86 93 106 124 145 149 144 134 130 132 119 107 102 97
223 222 220 216 213 212 210 208 207 207 207 205 204 203 203 202 202 203 203 202 202 201 201 203 204 203 203 204 204 202 202 201 198 196 201 207 210 208 207 211 214 209 202 197 200 206 208 207 207 206 201 188 179 169 159 151 140 127 117 107 96 85 73 63 57 56 58 57 59 68 81 86 88 97 107 117 128 137 131 130 134 120 110 111 108
218 220 222 220 216 214 213 211 210 210 209 207 206 205 204 203 203 204 205 203 202 201 201 202 203 204 203 205 208 208 206 203 198 194 197 203 208 211 210 212 214 211 207 202 201 207 211 211 210 211 209 194 182 177 174 165 150 138 128 119 106 93 80 69 59 55 60 64 66 70 76 82 85 93 101 104 108 117 114 116 117 105 104 109 112
217 217 219 221 220 219 217 213 211 211 209 208 208 208 206 205 204 205 206 206 204 202 202 202 202 202 203 205 207 209 208 204 201 197 196 198 204 210 212 212 214 214 212 209 205 206 211 214 214 215 212 198 186 180 178 170 159 151 141 132 119 102 86 75 65 55 57 65 71 75 76 77 78 80 88 92 96 104 106 107 104 98 100 101 99
220 221 222 222 220 220 221 216 212 211 210 210 211 211 210 207 205 205 206 206 206 205 203 202 201 200 201 205 207 207 204 201 202 201 198 198 201 209 213 213 214 216 216 215 213 210 210 215 217 217 212 202 193 185 180 174 168 163 156 146 133 116 99 86 75 62 57 61 68 74 77 79 80 79 80 83 86 93 98 102 103 102 100 96 87
221 222 225 227 222 219 220 219 216 213 212 212 212 213 213 210 207 206 205 206 207 207 205 203 202 200 199 202 206 206 203 200 200 200 200 200 201 207 214 216 215 216 218 220 221 219 216 217 219 219 214 207 199 191 186 180 175 173 168 160 146 131 118 104 93 80 67 62 65 72 77 81 85 87 87 87 88 92 94 98 101 100 97 94 84
217 218 221 226 226 222 222 220 216 213 212 211 211 214 214 212 210 207 205 205 207 208 206 204 204 202 199 199 202 203 203 202 200 200 200 201 202 207 215 220 219 217 219 223 226 226 226 222 221 221 218 211 206 200 194 189 184 181 178 173 165 152 136 122 113 105 90 76 72 74 79 83 86 90 93 94 95 96 97 101 103 101 98 96 90
214 213 215 219 222 221 220 218 214 210 210 209 209 213 214 213 212 208 206 205 206 208 206 205 206 204 200 197 198 200 202 203 202 201 202 203 204 207 214 222 224 222 222 226 230 232 233 229 223 222 220 215 212 208 202 198 193 187 185 183 181 175 162 145 134 128 121 104 89 83 84 86 87 87 89 93 95 95 96 98 101 104 101 99 98
217 212 212 215 218 217 215 214 212 208 207 207 207 211 213 214 213 210 207 205 205 207 207 206 206 205 202 198 197 198 201 203 203 204 204 204 205 208 214 222 228 230 229 232 236 238 238 233 226 223 223 221 218 214 209 204 199 193 191 189 189 190 183 169 154 145 141 129 112 96 88 87 87 85 82 83 87 90 91 92 95 98 98 96 96
221 215 212 215 218 217 215 213 211 209 207 205 205 208 211 214 214 211 207 204 205 207 207 207 205 204 202 198 198 200 201 203 203 205 206 205 205 206 211 220 227 233 234 234 237 238 238 235 228 222 222 223 220 217 213 206 203 200 199 195 194 196 193 184 172 161 155 148 137 122 106 95 89 87 83 78 77 82 86 88 88 90 92 92 90
226 220 215 217 220 220 216 213 211 210 208 205 205 207 209 212 214 212 208 204 204 206 207 207 204 202 202 199 199 201 202 204 205 206 207 207 206 205 207 213 220 227 231 231 230 232 233 233 229 223 222 223 221 219 215 209 205 204 205 204 201 199 198 195 188 179 172 168 162 151 137 121 105 100 96 89 80 78 83 87 87 84 84 84 82
230 227 221 218 219 221 219 214 213 211 209 207 207 207 209 212 213 213 210 206 204 206 207 207 204 202 201 200 201 203 204 205 206 208 210 210 209 206 206 209 214 220 225 228 227 226 228 229 228 224 223 223 223 221 217 212 209 206 206 210 210 205 202 202 200 195 190 185 181 174 169 160 137 118 111 106 97 85 80 82 85 84 81 77 72
232 231 228 221 219 223 222 217 215 212 210 209 208 209 210 212 213 213 210 208 206 207 207 207 206 204 202 201 202 204 207 208 208 209 211 212 213 210 207 207 210 215 221 226 227 226 225 226 227 224 223 224 224 223 220 216 214 210 208 210 213 211 206 206 206 205 203 200 194 191 189 185 171 149 134 128 124 118 99 75 77 81 84 85 77
234 234 233 226 222 226 224 219 217 215 213 212 210 209 209 210 213 214 212 210 208 207 207 207 207 206 203 203 203 205 207 209 210 210 210 212 215 214 211 209 208 212 217 223 226 227 225 226 227 226 223 222 223 223 221 218 216 214 210 210 213 214 212 211 210 209 212 211 205 203 201 200 196 187 177 167 158 156 161 156 106 67 67 84 90
238 237 235 228 223 226 226 221 219 217 215 214 211 208 208 209 211 213 214 214 211 209 207 207 208 208 206 205 205 206 208 210 211 211 211 212 213 216 216 213 211 213 216 221 225 227 227 227 229 229 226 222 222 222 222 218 215 212 210 209 212 216 216 217 217 215 216 216 214 213 210 208 211 210 208 205 197 196 199 207 219 234 279 321 13
239 239 238 232 225 227 227 223 221 219 216 214 211 208 208 209 210 211 213 214 214 212 209 208 208 209 208 207 207 207 208 210 212 213 213 212 212 215 217 216 215 215 217 221 225 228 229 228 230 232 230 224 220 220 221 220 215 210 208 208 210 214 215 218 222 221 219 217 215 217 217 215 218 218 219 222 223 224 223 225 233 237 245 268 282
238 240 241 237 229 226 225 222 221 221 219 216 213 210 209 209 210 210 212 214 215 214 212 210 209 210 210 210 209 209 210 211 213 215 214 213 212 214 216 216 216 216 217 220 225 229 230 229 228 229 228 222 218 216 218 219 217 212 209 208 210 212 212 214 220 223 223 221 217 217 218 221 225 223 222 226 230 235 238 238 241 244 246 254 259
234 236 239 238 232 227 222 219 219 220 219 217 214 211 210 209 210 211 212 214 215 215 214 212 210 210 211 211 211 210 211 213 214 216 215 214 214 214 215 216 216 216 215 217 221 226 229 227 224 223 220 217 213 210 212 214 213 212 211 210 212 214 214 216 220 224 227 229 226 223 221 224 229 230 229 230 231 235 240 244 248 252 254 257 259
225 228 232 234 233 228 221 217 218 219 217 214 212 210 209 210 210 212 213 214 215 216 216 215 212 211 210 211 212 211 212 213 215 217 217 216 215 215 215 217 217 216 215 214 216 220 224 224 220 216 212 208 204 202 202 202 201 202 204 204 206 209 212 217 221 224 228 232 234 232 230 231 233 233 232 234 236 237 239 243 250 256 259 262 266
217 221 227 230 233 229 220 215 216 218 215 211 209 208 208 209 210 213 214 214 215 217 217 216 214 213 211 211 212 213 213 215 216 217 218 217 217 216 217 217 217 218 216 213 213 216 220 220 217 213 208 202 197 194 192 189 187 190 192 193 196 199 202 210 216 221 227 233 237 238 239 239 240 239 236 235 237 239 242 244 247 252 257 262 267
214 219 227 229 233 230 219 214 215 216 212 208 205 203 203 205 207 211 212 212 214 216 218 218 215 213 213 212 213 213 214 216 217 218 218 218 218 218 217 217 217 219 218 215 214 214 217 219 217 214 209 203 197 194 193 190 189 194 198 201 206 207 208 212 216 221 229 236 240 241 243 246 248 247 245 243 243 243 245 247 248 250 253 257 261
212 216 225 228 233 229 217 213 213 213 210 206 201 198 197 199 200 203 205 208 211 213 216 218 217 215 214 214 214 214 215 217 218 218 218 217 218 217 217 217 217 219 219 218 217 215 217 218 218 216 214 209 206 203 200 198 200 206 210 214 221 224 226 228 229 232 237 243 246 247 248 251 255 257 258 257 256 254 252 252 251 252 254 255 256
216 217 223 226 230 227 216 212 210 209 209 205 199 195 195 196 196 197 200 203 206 209 212 215 216 217 217 216 216 216 217 218 219 219 218 218 218 218 217 217 217 218 220 220 220 219 218 219 218 218 217 215 215 213 211 210 213 218 222 226 232 237 241 243 244 246 248 250 253 253 253 257 261 265 267 268 268 267 264 261 259 258 258 258 258
214 213 218 222 226 224 215 211 208 208 208 205 200 197 197 198 198 198 201 203 205 206 208 211 214 217 217 217 218 219 219 220 220 220 220 220 220 219 218 218 218 219 220 221 222 221 221 220 219 220 219 218 219 218 217 218 222 226 231 235 240 246 251 254 256 257 258 258 258 258 259 261 264 266 268 268 268 270 270 269 268 268 266 265 264
205 205 212 216 215 214 212 210 208 207 208 205 201 199 201 202 202 202 204 206 208 209 209 210 212 215 216 217 219 220 221 222 221 222 222 223 223 222 221 220 220 221 221 221 222 222 222 221 220 220 220 220 220 219 218 220 224 230 236 241 246 251 256 261 264 266 266 265 265 264 264 265 266 266 265 265 265 267 269 270 271 272 272 272 271
203 203 209 208 202 203 207 208 208 208 208 204 201 201 204 205 204 204 205 206 208 211 213 213 212 211 213 216 218 220 221 222 223 223 224 225 226 225 225 224 224 225 224 224 224 223 222 221 220 220 220 220 220 219 218 220 225 231 237 243 248 254 259 264 267 268 270 271 271 270 269 268 267 267 266 266 266 266 268 269 269 268 269 271 272
202 205 207 201 196 199 202 206 208 207 205 201 200 202 205 207 207 206 206 207 209 212 215 217 216 213 212 214 216 219 221 222 223 223 224 225 227 228 228 228 229 229 228 228 228 227 225 223 221 221 220 221 221 219 219 221 225 230 236 242 249 255 261 265 267 268 269 270 269 268 266 265 264 265 266 267 266 266 267 268 267 266 266 267 268
204 207 204 196 196 198 199 202 204 203 200 197 198 201 204 207 209 209 210 211 213 215 217 219 219 218 218 217 217 218 220 222 223 223 224 225 227 228 229 229 230 231 231 232 232 231 229 226 225 224 223 223 223 222 222 224 226 230 236 244 251 257 262 265 266 266 264 262 261 261 261 261 263 264 265 266 267 268 268 268 268 267 266 265 266
202 202 195 191 195 198 198 198 198 198 196 194 194 198 201 205 209 213 216 218 219 219 219 219 218 219 222 223 221 221 222 223 223 224 225 226 227 228 228 229 229 230 231 232 234 234 232 230 230 228 226 227 227 226 227 229 230 233 238 246 253 258 262 263 261 259 256 255 256 259 262 265 267 268 268 269 271 272 271 271 270 269 268 269 270
198 196 189 190 195 197 198 197 196 195 194 194 194 195 198 204 209 212 216 219 221 221 219 218 217 219 223 224 225 225 225 225 226 226 226 226 227 228 229 229 229 230 231 231 233 234 234 233 232 231 230 230 229 228 230 231 233 235 240 247 253 256 256 255 253 251 252 256 261 266 269 271 273 273 273 273 273 273 272 271 270 270 271 273 274
194 193 192 194 197 198 199 199 197 196 195 194 194 195 198 203 206 207 211 217 222 223 221 218 217 218 221 224 226 228 228 228 228 227 227 227 228 228 229 230 231 232 232 233 233 233 234 234 234 234 233 231 230 230 230 232 234 237 241 245 247 249 249 248 248 250 255 263 269 273 275 275 275 275 275 275 274 273 272 271 271 272 272 273 274
192 193 194 196 196 196 197 196 194 195 194 194 195 196 198 200 201 203 207 213 220 224 223 219 216 216 218 221 224 227 228 229 229 229 229 229 229 229 229 231 233 234 234 235 235 234 234 233 233 235 235 232 230 232 233 234 235 237 239 240 240 243 245 247 249 253 261 268 272 275 276 276 275 275 275 275 275 274 274 274 274 275 274 274 275
194 195 197 198 197 195 194 191 189 192 193 195 198 199 199 199 199 202 206 210 216 221 221 218 215 215 216 219 222 225 228 230 230 231 231 231 232 231 231 232 234 234 235 235 236 236 236 234 233 234 234 233 233 235 237 237 236 234 234 234 237 241 245 249 252 257 264 270 274 276 276 276 275 275 275 275 274 274 275 276 278 279 279 279 280
198 200 203 205 202 198 195 194 194 196 196 198 200 200 199 199 200 204 209 213 216 219 221 219 215 214 215 218 221 225 228 230 231 232 233 233 234 234 233 234 234 235 235 235 237 238 237 236 234 233 233 234 235 236 238 237 234 230 231 234 239 243 247 252 257 262 268 273 275 276 276 276 277 278 278 277 276 276 278 280 282 282 283 284 283
203 205 208 210 207 202 200 200 202 202 200 201 203 203 203 203 205 209 214 218 221 224 227 226 223 220 219 219 221 223 225 228 230 232 234 235 236 235 235 235 235 236 236 236 236 236 236 235 234 232 232 234 235 235 236 234 231 229 232 237 243 247 251 255 261 266 270 273 274 276 278 280 282 283 283 283 283 283 284 286 286 286 288 289 286
208 210 212 212 209 206 204 205 206 204 203 205 208 210 211 211 212 216 221 225 229 232 234 235 234 231 226 223 221 220 222 224 227 230 232 234 235 236 237 237 237 237 237 237 237 236 235 235 234 232 232 233 234 235 233 232 231 232 235 240 245 249 253 258 262 267 270 272 273 276 279 282 284 285 285 287 288 289 290 291 290 290 291 291 288
209 210 211 209 205 203 205 207 207 206 207 210 213 216 219 221 223 226 230 234 237 240 240 240 241 240 236 231 224 221 221 223 224 226 229 230 232 234 235 238 239 239 239 239 238 237 236 235 235 234 233 233 234 235 234 233 234 236 239 243 247 251 255 259 264 267 269 271 273 276 279 282 284 285 286 288 289 290 291 291 292 293 293 291 288
196 196 198 199 199 201 204 207 207 207 210 213 214 214 217 220 224 226 230 235 240 243 243 241 241 242 242 241 236 231 228 225 223 222 223 225 228 230 231 234 236 238 240 240 239 239 239 237 237 237 236 236 235 236 236 237 238 240 244 247 250 252 256 261 264 267 269 272 275 278 281 283 284 285 287 289 290 292 292 293 295 295 294 292 288
178 178 181 188 194 198 200 202 204 205 208 209 211 211 211 212 212 213 217 224 231 235 236 236 236 238 240 242 244 243 240 235 229 224 221 221 222 225 228 231 232 234 237 238 239 240 240 239 238 238 239 239 239 239 240 241 242 245 247 250 252 255 258 262 265 267 271 274 277 279 281 283 285 286 287 289 291 292 293 295 295 295 294 293 291
168 170 172 178 186 191 194 197 199 201 203 205 208 211 211 212 213 214 218 223 228 231 233 233 234 236 238 241 244 246 248 247 243 239 234 229 223 222 225 229 231 233 235 236 237 238 240 240 240 239 240 241 242 243 243 244 246 248 250 252 254 257 260 263 266 269 272 275 277 279 281 283 285 286 288 290 292 292 292 292 292 291 290 290 291
166 170 172 176 180 185 188 191 194 196 199 203 207 211 214 217 220 223 227 231 235 236 236 237 237 237 238 241 244 246 248 250 251 252 251 248 240 231 226 228 232 235 236 237 236 237 239 241 241 241 241 242 243 244 245 246 247 249 251 253 255 257 260 263 266 269 273 275 276 278 280 282 284 286 288 288 289 289 289 289 288 287 287 287 290
168 171 173 176 178 182 185 188 192 195 199 204 209 214 218 222 226 229 232 236 238 238 237 237 237 236 236 239 243 246 247 249 252 255 255 254 252 249 241 234 234 237 240 240 239 238 239 241 242 243 243 243 243 244 245 246 247 249 251 253 255 258 261 264 267 269 271 273 274 277 279 281 283 285 286 286 287 289 290 289 289 289 290 291 294
171 173 175 178 181 184 187 191 196 200 204 208 214 218 223 228 232 236 238 241 243 243 242 239 237 237 235 235 238 242 245 247 251 255 258 258 257 259 257 251 246 243 242 242 242 241 240 240 241 242 243 243 244 243 243 245 246 249 251 253 256 259 261 264 266 268 270 272 274 276 278 280 281 283 284 286 288 289 290 289 289 290 292 294 295
174 176 179 183 185 189 192 196 202 207 212 217 222 225 229 233 237 241 244 246 248 247 245 241 239 239 238 235 234 237 240 243 247 251 255 258 260 261 261 260 258 254 249 246 244 244 243 243 243 244 244 245 245 245 245 246 247 249 252 254 256 259 261 263 265 266 269 271 273 275 277 278 281 283 285 286 288 287 286 286 287 289 291 293 295
177 180 183 187 190 194 197 202 208 213 219 224 229 233 236 239 241 243 244 246 248 248 246 243 240 239 239 239 238 238 239 242 246 248 251 254 257 259 261 262 262 260 257 253 248 246 245 245 246 248 249 249 250 250 250 251 251 252 254 256 258 260 262 263 265 267 269 271 273 275 277 279 281 283 283 283 284 283 283 285 286 289 291 292 294
179 182 187 191 195 200 204 208 213 218 223 229 235 240 243 246 247 246 245 244 246 247 247 245 242 241 240 241 242 242 243 245 247 250 252 254 255 258 261 263 263 261 260 257 254 250 248 247 248 250 251 253 253 253 254 255 256 256 257 258 261 263 264 266 267 268 270 271 273 276 278 279 279 279 278 279 279 280 282 284 286 289 291 292 293
176 183 191 197 203 208 213 218 222 227 232 238 243 245 246 246 248 247 246 243 244 246 247 246 245 244 244 244 245 245 245 247 250 252 254 256 258 260 261 261 261 260 260 258 256 254 251 250 250 252 254 255 256 256 256 256 256 258 260 261 263 265 266 267 268 269 270 272 273 274 274 274 274 273 274 276 278 280 282 284 286 288 289 291 292
Height
3162 3163 3165 3167 3169 3170 3172 3174 3176 3177 3179 3181 3182 3184 3186 3188 3190 3192 3194 3196 3198 3199 3201 3202 3204 3206 3208 3210 3212 3213 3215 3216 3218 3219 3221 3222 3223 3224 3225 3225 3226 3227 3228 3229 3229 3230 3230 3230 3231 3231 3231 3231 3231 3231 3231 3231 3230 3230 3230 3230 3229 3228 3227 3227 3226 3226 3227 3227 3226 3226 3226 3226 3226 3226 3226 3227 3227 3228 3228 3227 3227 3227 3227 3227 3227
3160 3161 3163 3165 3166 3168 3169 3171 3173 3175 3177 3178 3180 3183 3185 3186 3188 3191 3193 3194 3196 3198 3200 3202 3204 3206 3208 3210 3212 3213 3214 3216 3217 3219 3220 3221 3222 3223 3224 3225 3226 3227 3228 3228 3229 3229 3230 3230 3231 3231 3231 3231 3231 3231 3231 3231 3231 3231 3230 3230 3230 3229 3228 3228 3227 3227 3227 3227 3227 3226 3226 3226 3226 3226 3226 3227 3227 3227 3227 3227 3227 3227 3227 3227 3226
3157 3159 3160 3162 3164 3166 3167 3169 3170 3173 3175 3177 3179 3181 3183 3185 3187 3189 3191 3192 3195 3197 3199 3201 3203 3206 3208 3210 3211 3213 3214 3215 3217 3218 3218 3220 3221 3222 3223 3224 3225 3226 3227 3227 3228 3229 3230 3230 3231 3231 3231 3231 3231 3231 3231 3231 3231 3231 3231 3230 3230 3230 3229 3229 3228 3228 3227 3227 3227 3227 3227 3226 3226 3227 3227 3227 3227 3227 3227 3227 3227 3227 3227 3227 3227
3154 3156 3158 3160 3161 3163 3164 3166 3168 3171 3173 3175 3177 3179 3180 3182 3185 3187 3189 3191 3193 3195 3198 3200 3202 3204 3206 3208 3209 3211 3212 3213 3215 3215 3217 3218 3220 3221 3223 3224 3225 3225 3226 3227 3228 3229 3229 3230 3231 3231 3231 3232 3232 3232 3232 3232 3232 3232 3231 3231 3231 3230 3230 3230 3230 3229 3228 3227 3227 3227 3227 3227 3227 3228 3228 3228 3228 3228 3227 3227 3227 3227 3227 3227 3228
3152 3154 3156 3157 3158 3159 3161 3164 3166 3168 3170 3172 3174 3176 3179 3181 3183 3185 3187 3190 3192 3194 3196 3198 3200 3201 3203 3205 3206 3207 3209 3210 3212 3213 3215 3217 3219 3221 3222 3223 3224 3225 3226 3227 3227 3228 3229 3230 3231 3231 3232 3232 3232 3232 3232 3232 3232 3232 3232 3232 3232 3231 3231 3231 3231 3231 3230 3229 3228 3228 3228 3228 3228 3229 3229 3229 3229 3229 3228 3228 3228 3227 3227 3227 3228
3151 3152 3154 3155 3156 3158 3160 3162 3164 3165 3167 3170 3172 3175 3177 3179 3182 3184 3186 3188 3190 3192 3194 3196 3197 3199 3201 3202 3203 3205 3206 3208 3210 3213 3215 3217 3219 3220 3222 3223 3224 3224 3225 3226 3227 3228 3229 3230 3231 3231 3232 3232 3232 3232 3232 3232 3232 3232 3232 3233 3233 3232 3232 3232 3232 3232 3231 3230 3230 3229 3229 3229 3229 3230 3230 3230 3230 3230 3229 3229 3229 3228 3228 3228 3228
3149 3151 3152 3154 3155 3156 3158 3159 3161 3163 3166 3169 3171 3173 3176 3178 3180 3182 3184 3186 3188 3190 3192 3193 3195 3197 3199 3201 3203 3205 3206 3209 3211 3214 3215 3217 3219 3220 3221 3222 3223 3224 3225 3225 3226 3227 3228 3229 3230 3231 3232 3232 3232 3233 3233 3233 3233 3233 3233 3233 3233 3233 3233 3232 3232 3233 3232 3232 3231 3231 3230 3230 3230 3230 3230 3230 3230 3231 3230 3230 3230 3229 3229 3229 3229
3146 3148 3149 3151 3153 3155 3156 3158 3160 3162 3165 3167 3169 3171 3173 3175 3178 3180 3182 3184 3186 3188 3190 3191 3193 3195 3198 3200 3202 3204 3206 3209 3212 3213 3215 3216 3217 3218 3220 3221 3222 3223 3224 3225 3226 3226 3227 3228 3229 3230 3231 3232 3232 3233 3233 3233 3234 3234 3234 3234 3234 3234 3233 3233 3233 3233 3233 3233 3233 3232 3232 3231 3231 3231 3231 3231 3231 3231 3231 3231 3231 3230 3230 3230 3230
3144 3146 3147 3149 3151 3153 3155 3157 3159 3161 3163 3165 3167 3170 3171 3174 3176 3178 3180 3182 3184 3186 3188 3190 3192 3194 3196 3198 3200 3202 3205 3208 3210 3211 3213 3214 3216 3217 3218 3220 3221 3222 3223 3224 3225 3226 3227 3228 3229 3230 3231 3231 3232 3233 3234 3234 3234 3234 3235 3235 3235 3234 3234 3234 3234 3234 3234 3234 3233 3233 3233 3233 3233 3232 3232 3232 3232 3232 3232 3232 3232 3232 3231 3231 3231
3142 3144 3145 3147 3149 3152 3154 3156 3158 3160 3162 3164 3166 3168 3170 3172 3173 3175 3178 3180 3182 3184 3186 3189 3190 3192 3193 3196 3198 3201 3203 3205 3207 3209 3211 3213 3214 3216 3217 3219 3220 3221 3222 3223 3224 3225 3226 3227 3228 3229 3230 3231 3232 3233 3233 3234 3234 3235 3235 3235 3235 3235 3235 3235 3234 3235 3235 3234 3234 3234 3234 3234 3234 3234 3233 3233 3233 3233 3233 3233 3233 3233 3232 3232 3232
3139 3141 3143 3146 3148 3151 3153 3154 3156 3158 3160 3162 3164 3166 3168 3169 3171 3173 3176 3178 3180 3182 3184 3187 3188 3190 3192 3194 3197 3199 3202 3203 3205 3207 3209 3211 3213 3215 3216 3218 3219 3221 3222 3223 3223 3224 3225 3226 3228 3228 3229 3230 3231 3232 3233 3234 3234 3234 3235 3235 3235 3235 3235 3235 3235 3235 3235 3236 3235 3235 3235 3235 3235 3234 3234 3234 3234 3234 3234 3234 3234 3233 3233 3233 3232
3136 3139 3141 3144 3146 3149 3150 3151 3153 3155 3157 3159 3161 3163 3165 3167 3169 3171 3174 3176 3178 3180 3182 3184 3186 3188 3190 3193 3195 3197 3200 3202 3204 3206 3208 3210 3212 3214 3216 3217 3218 3220 3221 3222 3223 3224 3225 3226 3227 3228 3229 3230 3231 3232 3232 3233 3233 3234 3235 3235 3235 3235 3236 3236 3235 3236 3236 3236 3236 3236 3236 3236 3236 3235 3235 3235 3235 3235 3235 3235 3234 3234 3234 3234 3233
3134 3137 3139 3141 3143 3145 3146 3148 3150 3152 3153 3155 3158 3160 3162 3165 3167 3169 3171 3174 3176 3178 3180 3182 3184 3187 3189 3191 3193 3195 3197 3200 3202 3205 3207 3209 3211 3213 3214 3216 3217 3219 3220 3221 3222 3223 3224 3225 3226 3227 3228 3229 3230 3231 3232 3233 3233 3234 3234 3235 3235 3235 3235 3236 3236 3236 3237 3237 3237 3237 3237 3237 3237 3236 3236 3236 3236 3236 3236 3235 3236 3235 3235 3235 3234
3131 3134 3136 3138 3140 3142 3144 3146 3147 3148 3151 3153 3156 3158 3160 3162 3164 3167 3169 3172 3174 3176 3178 3180 3182 3185 3188 3190 3192 3194 3196 3198 3201 3203 3206 3208 3210 3212 3213 3215 3216 3218 3219 3221 3222 3222 3223 3224 3225 3226 3227 3228 3229 3230 3231 3232 3233 3233 3234 3234 3235 3235 3235 3236 3236 3236 3237 3237 3238 3238 3238 3238 3238 3238 3237 3237 3237 3237 3236 3236 3237 3237 3236 3236 3235
3128 3131 3134 3135 3137 3140 3142 3144 3145 3147 3149 3151 3153 3156 3158 3160 3162 3165 3167 3169 3172 3174 3176 3178 3181 3184 3186 3188 3190 3192 3195 3197 3199 3202 3204 3206 3208 3210 3212 3213 3215 3216 3218 3219 3220 3221 3222 3223 3224 3225 3225 3226 3228 3229 3230 3231 3232 3232 3233 3234 3234 3235 3235 3235 3236 3236 3237 3237 3238 3238 3238 3239 3239 3239 3238 3238 3238 3238 3238 3237 3237 3238 3238 3237 3237
3125 3127 3130 3133 3136 3138 3140 3142 3143 3145 3147 3149 3151 3153 3155 3157 3160 3163 3166 3168 3170 3172 3174 3177 3180 3182 3184 3186 3188 3190 3193 3195 3197 3200 3202 3204 3206 3208 3210 3212 3213 3215 3216 3217 3218 3219 3220 3221 3222 3223 3224 3225 3226 3227 3229 3230 3231 3232 3232 3233 3234 3235 3235 3235 3236 3236 3237 3237 3238 3238 3239 3239 3239 3239 3239 3239 3239 3239 3239 3238 3238 3238 3238 3238 3237
3122 3124 3127 3131 3133 3135 3137 3140 3141 3143 3144 3146 3148 3150 3153 3155 3158 3161 3164 3166 3168 3170 3173 3175 3178 3180 3182 3184 3186 3188 3191 3193 3196 3198 3200 3202 3204 3206 3208 3209 3211 3213 3214 3215 3216 3217 3219 3219 3221 3222 3223 3224 3225 3226 3227 3228 3230 3230 3231 3232 3233 3233 3234 3235 3235 3236 3236 3237 3237 3238 3238 3239 3239 3240 3240 3239 3239 3239 3240 3239 3239 3239 3239 3238 3238
3119 3122 3124 3128 3131 3132 3135 3138 3139 3141 3143 3144 3146 3149 3151 3154 3156 3159 3161 3164 3166 3169 3171 3174 3176 3178 3180 3182 3184 3186 3189 3192 3195 3197 3199 3200 3202 3204 3206 3207 3209 3211 3212 3214 3215 3216 3217 3218 3219 3220 3221 3222 3223 3224 3226 3227 3228 3229 3230 3231 3232 3232 3233 3234 3235 3235 3236 3236 3237 3237 3238 3239 3239 3239 3240 3240 3240 3239 3240 3240 3239 3239 3239 3239 3239
3115 3118 3121 3125 3129 3130 3132 3135 3137 3139 3141 3143 3146 3148 3150 3152 3155 3157 3160 3163 3165 3167 3170 3172 3174 3176 3178 3180 3183 3185 3188 3190 3193 3195 3196 3198 3200 3202 3204 3206 3208 3209 3210 3212 3213 3214 3215 3216 3217 3218 3220 3221 3222 3223 3224 3225 3227 3228 3229 3230 3230 3231 3232 3233 3234 3234 3235 3235 3236 3237 3237 3238 3238 3239 3239 3240 3240 3240 3239 3239 3239 3239 3239 3239 3239
3111 3114 3117 3122 3126 3127 3129 3132 3135 3137 3139 3141 3144 3146 3148 3150 3153 3155 3158 3161 3163 3165 3168 3170 3172 3174 3177 3179 3181 3183 3185 3188 3190 3193 3194 3196 3199 3200 3202 3204 3206 3207 3209 3210 3211 3212 3214 3215 3216 3217 3218 3220 3221 3222 3223 3224 3225 3226 3227 3228 3229 3230 3231 3231 3232 3233 3234 3234 3235 3236 3236 3237 3237 3238 3238 3239 3239 3239 3239 3239 3238 3238 3239 3239 3239
3108 3111 3114 3117 3122 3124 3127 3130 3133 3136 3138 3140 3142 3144 3146 3148 3151 3153 3156 3158 3160 3163 3165 3168 3170 3172 3175 3177 3179 3181 3184 3186 3188 3190 3192 3195 3197 3198 3200 3202 3204 3205 3207 3208 3210 3211 3212 3214 3215 3216 3217 3218 3220 3221 3222 3223 3224 3225 3226 3227 3227 3228 3229 3230 3231 3231 3232 3233 3234 3235 3236 3236 3236 3237 3237 3238 3238 3238 3238 3238 3238 3238 3238 3238 3238
3106 3108 3110 3113 3117 3121 3124 3128 3131 3133 3135 3138 3139 3142 3144 3146 3149 3151 3153 3156 3158 3161 3163 3166 3168 3170 3173 3175 3177 3180 3182 3184 3186 3188 3190 3192 3194 3197 3199 3200 3201 3203 3205 3207 3208 3210 3211 3212 3213 3215 3215 3217 3218 3219 3221 3221 3222 3223 3224 3225 3226 3227 3228 3229 3229 3230 3231 3232 3233 3233 3234 3235 3235 3235 3236 3236 3237 3237 3237 3237 3237 3237 3237 3237 3237
3104 3106 3107 3110 3113 3117 3122 3126 3128 3131 3133 3135 3137 3139 3141 3143 3147 3149 3151 3154 3156 3159 3162 3164 3166 3168 3171 3173 3175 3177 3180 3181 3183 3185 3188 3190 3193 3195 3196 3198 3200 3201 3203 3205 3207 3208 3209 3210 3212 3213 3214 3215 3217 3218 3219 3220 3221 3222 3223 3224 3225 3226 3227 3228 3228 3229 3230 3230 3231 3232 3233 3233 3233 3234 3235 3235 3235 3236 3235 3235 3235 3235 3236 3236 3236
3101 3103 3105 3107 3109 3113 3119 3123 3126 3128 3131 3132 3134 3136 3139 3141 3144 3146 3149 3152 3155 3158 3160 3162 3164 3166 3169 3171 3173 3175 3177 3179 3181 3183 3186 3188 3191 3193 3194 3196 3198 3199 3201 3203 3205 3206 3207 3208 3210 3212 3213 3214 3216 3217 3218 3219 3220 3221 3223 3223 3224 3225 3226 3227 3227 3228 3228 3229 3229 3230 3231 3231 3231 3232 3232 3233 3233 3234 3234 3234 3234 3234 3234 3234 3234
3099 3100 3102 3104 3105 3109 3116 3121 3123 3126 3128 3130 3132 3134 3137 3139 3142 3144 3147 3150 3153 3156 3158 3160 3162 3165 3167 3168 3170 3173 3175 3176 3179 3181 3183 3186 3188 3190 3192 3194 3196 3197 3199 3201 3202 3204 3205 3206 3208 3210 3212 3213 3215 3216 3217 3218 3219 3220 3222 3223 3223 3224 3225 3226 3226 3227 3227 3228 3228 3229 3230 3230 3229 3229 3230 3231 3231 3232 3232 3232 3233 3233 3232 3232 3232
3096 3098 3100 3102 3103 3106 3113 3118 3121 3123 3126 3128 3130 3132 3135 3137 3140 3143 3146 3148 3151 3153 3156 3158 3160 3162 3164 3166 3168 3170 3172 3175 3177 3179 3181 3184 3186 3188 3190 3192 3194 3195 3197 3199 3200 3202 3203 3205 3207 3208 3210 3212 3213 3214 3215 3217 3218 3219 3220 3221 3222 3223 3224 3224 3225 3226 3226 3227 3227 3228 3228 3228 3227 3228 3228 3229 3229 3230 3230 3230 3230 3231 3231 3230 3230
3093 3096 3098 3099 3101 3104 3109 3114 3118 3121 3124 3126 3128 3131 3134 3136 3139 3142 3144 3147 3149 3151 3154 3156 3158 3160 3162 3164 3167 3169 3171 3173 3175 3177 3180 3182 3184 3186 3188 3190 3192 3193 3195 3196 3198 3200 3201 3203 3205 3207 3208 3210 3211 3212 3213 3215 3216 3217 3218 3219 3220 3221 3222 3223 3224 3224 3225 3226 3226 3226 3226 3226 3226 3226 3227 3227 3227 3227 3227 3228 3228 3228 3228 3227 3227
3089 3092 3095 3097 3099 3102 3107 3111 3115 3119 3121 3124 3127 3130 3132 3135 3138 3140 3143 3145 3147 3150 3152 3154 3156 3158 3160 3163 3165 3168 3170 3172 3174 3176 3178 3179 3181 3183 3185 3188 3190 3191 3193 3195 3196 3198 3200 3201 3203 3204 3206 3207 3208 3209 3211 3212 3214 3215 3216 3217 3219 3219 3220 3221 3222 3222 3223 3224 3224 3225 3225 3224 3224 3225 3225 3225 3225 3225 3225 3225 3225 3225 3225 3224 3224
3085 3089 3092 3095 3098 3101 3104 3108 3112 3116 3119 3122 3125 3128 3131 3133 3136 3139 3141 3144 3146 3148 3150 3153 3154 3156 3159 3161 3164 3166 3168 3170 3172 3174 3176 3177 3179 3181 3183 3185 3187 3189 3191 3193 3195 3196 3197 3199 3200 3202 3204 3205 3205 3207 3208 3210 3212 3213 3214 3216 3217 3218 3218 3219 3220 3220 3221 3221 3222 3222 3222 3222 3222 3222 3223 3223 3223 3223 3222 3222 3223 3223 3222 3221 3220
3083 3086 3090 3093 3097 3100 3102 3106 3110 3114 3117 3120 3123 3126 3129 3131 3134 3137 3139 3142 3144 3146 3149 3151 3153 3155 3158 3160 3162 3164 3166 3168 3170 3172 3174 3175 3177 3179 3180 3182 3184 3186 3188 3191 3192 3194 3195 3196 3198 3199 3201 3202 3203 3204 3206 3208 3210 3211 3213 3214 3215 3216 3216 3217 3218 3218 3219 3219 3219 3220 3220 3220 3220 3220 3220 3220 3220 3220 3219 3219 3220 3220 3219 3218 3217
3081 3084 3088 3092 3095 3098 3100 3104 3108 3111 3115 3118 3121 3124 3127 3130 3132 3135 3138 3140 3143 3145 3147 3149 3152 3155 3157 3159 3160 3162 3164 3166 3167 3169 3171 3173 3175 3176 3178 3180 3181 3183 3186 3188 3190 3191 3193 3194 3196 3197 3198 3199 3200 3202 3204 3206 3208 3209 3211 3212 3212 3213 3214 3215 3215 3216 3216 3217 3217 3216 3217 3217 3216 3217 3217 3217 3217 3217 3216 3216 3216 3216 3216 3214 3214
3079 3082 3086 3090 3093 3096 3099 3102 3106 3110 3113 3116 3120 3123 3125 3128 3131 3133 3136 3139 3141 3143 3145 3147 3151 3154 3156 3157 3159 3160 3162 3164 3166 3167 3169 3171 3173 3174 3175 3177 3178 3180 3183 3185 3186 3188 3190 3192 3193 3194 3196 3196 3198 3200 3202 3204 3206 3207 3209 3209 3210 3211 3211 3212 3213 3213 3214 3214 3214 3214 3213 3213 3214 3214 3214 3214 3214 3213 3213 3213 3213 3213 3212 3211 3210
3078 3081 3085 3089 3092 3095 3098 3101 3105 3108 3112 3115 3119 3122 3124 3127 3130 3132 3134 3137 3138 3141 3143 3146 3149 3152 3153 3155 3157 3158 3160 3162 3164 3166 3168 3169 3170 3171 3173 3174 3176 3178 3180 3181 3183 3185 3187 3189 3190 3191 3193 3194 3195 3198 3200 3201 3203 3205 3206 3207 3207 3208 3208 3209 3210 3210 3211 3211 3211 3211 3210 3211 3211 3211 3211 3211 3210 3210 3210 3210 3209 3209 3208 3208 3208
3077 3080 3084 3087 3090 3094 3097 3101 3104 3108 3111 3115 3118 3121 3124 3126 3128 3131 3133 3134 3137 3139 3141 3144 3147 3149 3150 3152 3154 3156 3158 3160 3162 3164 3165 3166 3168 3169 3171 3172 3174 3175 3177 3178 3181 3183 3184 3186 3187 3189 3190 3191 3193 3195 3197 3199 3200 3202 3203 3204 3204 3205 3205 3206 3206 3207 3207 3208 3208 3208 3208 3208 3208 3208 3208 3208 3208 3207 3207 3206 3206 3205 3205 3205 3205
3075 3078 3081 3085 3089 3093 3096 3100 3103 3107 3110 3113 3116 3119 3122 3124 3127 3129 3131 3133 3135 3137 3139 3142 3144 3146 3148 3150 3152 3154 3155 3157 3160 3161 3163 3164 3165 3167 3169 3170 3171 3173 3174 3176 3178 3180 3182 3183 3185 3186 3187 3188 3190 3193 3194 3196 3197 3199 3200 3200 3201 3201 3202 3202 3203 3204 3205 3205 3205 3205 3205 3205 3205 3205 3205 3205 3204 3204 3203 3202 3201 3201 3201 3202 3201
3073 3077 3080 3084 3088 3092 3095 3099 3102 3106 3109 3112 3115 3117 3120 3123 3125 3127 3129 3131 3133 3134 3136 3139 3141 3143 3145 3147 3149 3151 3153 3155 3157 3158 3160 3162 3163 3165 3167 3168 3169 3171 3172 3174 3175 3177 3179 3181 3182 3183 3184 3185 3188 3190 3191 3193 3195 3196 3197 3197 3197 3198 3198 3199 3200 3201 3202 3202 3202 3202 3201 3201 3202 3201 3201 3201 3201 3200 3199 3198 3197 3197 3197 3197 3197
3072 3075 3078 3082 3087 3091 3094 3098 3101 3104 3107 3110 3113 3115 3118 3120 3123 3125 3127 3129 3130 3132 3134 3137 3139 3141 3143 3145 3147 3148 3150 3152 3154 3155 3157 3159 3161 3163 3165 3166 3167 3168 3170 3171 3173 3175 3177 3178 3179 3181 3182 3183 3185 3187 3189 3190 3192 3193 3193 3193 3194 3195 3195 3196 3197 3198 3198 3198 3199 3199 3198 3198 3198 3198 3198 3198 3197 3195 3194 3193 3193 3192 3192 3192 3192
3070 3073 3076 3080 3085 3089 3092 3096 3099 3103 3106 3109 3111 3114 3116 3118 3120 3122 3125 3126 3128 3130 3132 3134 3137 3139 3141 3143 3144 3146 3148 3149 3151 3152 3154 3156 3158 3160 3162 3163 3164 3166 3167 3169 3171 3172 3174 3175 3176 3178 3179 3180 3182 3184 3186 3187 3188 3190 3190 3190 3191 3191 3192 3192 3193 3194 3194 3195 3195 3195 3195 3194 3194 3194 3194 3194 3193 3191 3190 3189 3188 3187 3186 3187 3187
3069 3072 3075 3079 3083 3087 3091 3094 3098 3101 3104 3107 3110 3112 3114 3116 3118 3120 3122 3124 3126 3128 3130 3132 3134 3136 3138 3140 3142 3143 3145 3147 3148 3150 3151 3153 3155 3156 3158 3160 3161 3163 3164 3166 3168 3169 3170 3172 3174 3175 3176 3177 3178 3181 3182 3183 3185 3186 3187 3187 3188 3188 3188 3189 3189 3190 3190 3191 3191 3191 3191 3191 3191 3190 3190 3189 3188 3186 3185 3184 3183 3181 3180 3180 3181
3067 3071 3074 3078 3082 3086 3090 3093 3097 3100 3102 3105 3108 3111 3113 3115 3117 3119 3120 3122 3124 3125 3127 3129 3130 3133 3135 3137 3139 3141 3142 3144 3146 3147 3149 3150 3151 3153 3155 3156 3158 3159 3161 3162 3164 3165 3167 3169 3170 3171 3173 3174 3175 3177 3179 3180 3181 3182 3183 3184 3184 3184 3184 3185 3186 3186 3186 3187 3187 3188 3188 3187 3187 3186 3185 3184 3183 3182 3180 3180 3178 3176 3175 3174 3175
3067 3070 3074 3077 3081 3085 3089 3092 3095 3098 3101 3103 3106 3109 3111 3113 3114 3116 3118 3119 3121 3123 3125 3126 3128 3129 3131 3134 3136 3138 3140 3142 3143 3145 3146 3147 3148 3150 3151 3153 3154 3155 3157 3158 3160 3162 3163 3165 3166 3167 3169 3170 3171 3173 3175 3176 3177 3178 3179 3180 3180 3180 3181 3181 3182 3182 3182 3183 3184 3184 3184 3183 3183 3182 3181 3180 3179 3178 3176 3175 3173 3171 3168 3167 3168
3067 3070 3074 3077 3080 3084 3087 3091 3094 3097 3099 3102 3104 3107 3109 3111 3113 3114 3116 3117 3119 3121 3122 3124 3126 3127 3129 3130 3133 3135 3137 3138 3140 3142 3143 3144 3145 3147 3148 3149 3150 3152 3153 3154 3156 3157 3159 3160 3162 3163 3165 3166 3168 3169 3171 3172 3173 3174 3175 3175 3176 3177 3178 3178 3178 3178 3178 3179 3180 3180 3179 3179 3178 3177 3177 3176 3175 3173 3172 3170 3168 3166 3163 3160 3160
3067 3070 3073 3077 3080 3083 3086 3089 3092 3095 3098 3100 3102 3104 3107 3109 3110 3112 3114 3116 3118 3119 3120 3122 3123 3125 3126 3128 3130 3131 3133 3135 3136 3138 3140 3141 3142 3144 3145 3146 3147 3148 3149 3150 3151 3153 3154 3155 3157 3159 3160 3162 3163 3165 3166 3168 3169 3170 3170 3171 3172 3173 3173 3173 3173 3174 3174 3175 3175 3175 3174 3174 3173 3173 3172 3171 3170 3169 3167 3165 3164 3162 3159 3156 3154
3067 3070 3072 3075 3078 3081 3084 3087 3090 3093 3096 3098 3100 3102 3104 3106 3108 3110 3112 3114 3115 3117 3118 3120 3121 3123 3124 3126 3127 3129 3130 3132 3133 3134 3136 3138 3139 3140 3142 3143 3144 3145 3145 3146 3147 3149 3150 3151 3152 3154 3156 3157 3158 3160 3162 3163 3164 3165 3165 3166 3167 3168 3168 3168 3169 3169 3170 3170 3170 3170 3169 3169 3168 3168 3167 3167 3166 3164 3163 3162 3160 3158 3155 3152 3150
3067 3069 3071 3074 3077 3080 3083 3086 3089 3092 3094 3096 3099 3101 3103 3105 3107 3108 3110 3111 3113 3115 3116 3118 3119 3120 3122 3124 3125 3126 3128 3129 3130 3131 3133 3134 3135 3137 3138 3140 3141 3142 3142 3143 3144 3145 3146 3147 3148 3150 3151 3152 3154 3155 3156 3158 3159 3160 3161 3162 3163 3163 3164 3164 3165 3165 3166 3166 3166 3165 3165 3164 3164 3163 3163 3163 3161 3160 3159 3158 3156 3154 3152 3150 3148
3066 3068 3070 3073 3076 3079 3082 3085 3088 3090 3092 3095 3097 3099 3101 3103 3105 3106 3108 3110 3111 3113 3114 3115 3117 3118 3120 3121 3123 3124 3125 3127 3128 3129 3130 3131 3132 3133 3135 3136 3138 3139 3139 3140 3141 3142 3143 3144 3144 3145 3147 3148 3149 3150 3151 3153 3154 3155 3156 3157 3158 3159 3159 3160 3160 3161 3161 3161 3161 3161 3160 3160 3159 3159 3158 3158 3157 3156 3154 3153 3152 3150 3149 3148 3146
3065 3067 3070 3072 3075 3078 3081 3084 3086 3088 3091 3093 3095 3097 3099 3101 3103 3104 3106 3107 3108 3110 3112 3113 3115 3116 3118 3119 3121 3122 3123 3124 3125 3126 3127 3128 3129 3131 3132 3133 3135 3135 3136 3137 3138 3139 3139 3140 3141 3142 3142 3143 3144 3145 3147 3148 3149 3150 3151 3152 3153 3154 3155 3155 3156 3156 3156 3156 3156 3155 3155 3155 3155 3154 3153 3152 3152 3151 3150 3149 3148 3147 3146 3145 3143
3064 3066 3069 3071 3074 3077 3079 3082 3084 3086 3088 3091 3093 3095 3097 3098 3100 3102 3103 3104 3105 3107 3109 3110 3112 3114 3115 3117 3118 3119 3120 3121 3122 3123 3124 3126 3127 3129 3130 3131 3132 3132 3133 3134 3134 3135 3136 3137 3137 3138 3138 3139 3140 3142 3143 3144 3145 3146 3147 3148 3149 3149 3150 3150 3151 3151 3151 3151 3151 3151 3151 3151 3150 3149 3148 3147 3147 3146 3146 3145 3145 3144 3143 3142 3140
3063 3065 3068 3070 3073 3075 3077 3080 3082 3084 3086 3088 3090 3092 3094 3096 3097 3099 3100 3101 3102 3104 3105 3107 3109 3111 3112 3114 3115 3116 3117 3118 3119 3121 3122 3124 3125 3126 3127 3127 3128 3129 3130 3130 3131 3132 3133 3133 3134 3135 3135 3136 3138 3139 3140 3141 3142 3142 3143 3144 3144 3145 3145 3145 3146 3146 3146 3146 3146 3146 3146 3145 3145 3144 3144 3143 3143 3142 3142 3142 3141 3141 3140 3138 3137
3061 3063 3066 3068 3070 3073 3075 3077 3079 3081 3083 3085 3087 3089 3091 3093 3094 3095 3097 3098 3099 3101 3102 3104 3106 3107 3109 3110 3111 3112 3114 3115 3116 3118 3119 3120 3121 3122 3123 3124 3125 3126 3127 3127 3128 3128 3129 3130 3130 3131 3132 3133 3134 3136 3137 3137 3138 3139 3139 3139 3140 3140 3140 3141 3141 3141 3141 3141 3141 3141 3141 3140 3140 3140 3139 3139 3139 3139 3138 3138 3138 3137 3136 3134 3133
3058 3061 3063 3065 3068 3070 3072 3075 3077 3079 3081 3082 3084 3086 3087 3089 3090 3092 3093 3095 3096 3098 3099 3101 3102 3104 3106 3106 3108 3109 3110 3112 3113 3114 3116 3117 3118 3118 3119 3120 3121 3122 3122 3123 3124 3125 3126 3126 3127 3128 3129 3130 3131 3132 3133 3133 3134 3135 3135 3135 3136 3136 3136 3136 3136 3136 3137 3137 3137 3137 3137 3136 3136 3136 3135 3135 3135 3134 3134 3134 3134 3133 3132 3130 3128